Location: LDNL
(36.4545°S, 141.6685°E)
Time: 12:01:59
(UTC+10:00)

Tiros 1 despin weight - Pass Details

Date: 17 August 2022
Orbit: 590 x 639 km, 48.2° (Epoch: 23 September)

Event Time Altitude Azimuth Distance (km) Brightness Sun altitude
Rises 02:28:11 0° 236° (SW) 2,939 - -56.3°
Reaches altitude 10° 02:30:59 10° 220° (SW) 2,037 - -55.9°
Maximum altitude 02:34:36 21° 170° (S) 1,437 - -55.3°
Drops below altitude 10° 02:38:13 10° 120° (ESE) 2,047 - -54.6°
Sets 02:41:03 0° 103° (ESE) 2,957 - -54.2°
